| time (UTC) | temp F | wind direction | speed MPH | gust MPH | rain 1hr in | rain 24hr in | rain mn in | humidity % | barometer mb |
| 20260504081759 | 54 | 334 | 10.0 | 13.0 | 0.00 | 0.12 | 0.00 | 50 | 1003.7 |
| 20260504080920 | 54 | 337 | 10.0 | 12.0 | 0.00 | 0.12 | 0.00 | 53 | 1003.8 |
| 20260504050001 | 51 | 288 | 4.0 | 5.0 | 0.00 | 0.12 | 0.12 | 64 | 1005.6 |
| 20260504045400 | 51 | 288 | 4.0 | 5.0 | 0.00 | 0.12 | 0.12 | 65 | 1005.5 |
| 20260504044500 | 50 | 288 | 4.0 | 5.0 | 0.00 | 0.12 | 0.12 | 66 | 1005.7 |
| 20260504043600 | 51 | 288 | 4.0 | 7.0 | 0.00 | 0.12 | 0.12 | 66 | 1005.6 |
| 20260504042701 | 52 | 287 | 5.0 | 7.0 | 0.00 | 0.12 | 0.12 | 66 | 1005.7 |
| 20260504041821 | 53 | 288 | 7.0 | 10.0 | 0.00 | 0.12 | 0.12 | 66 | 1005.6 |
| 20260504040900 | 52 | 275 | 6.0 | 11.0 | 0.00 | 0.12 | 0.12 | 69 | 1005.6 |
| 20260504040000 | 51 | 248 | 5.0 | 8.0 | 0.00 | 0.12 | 0.12 | 73 | 1005.5 |
| 20260504035400 | 50 | 259 | 5.0 | 8.0 | 0.00 | 0.12 | 0.12 | 75 | 1005.6 |
| 20260504034500 | 51 | 360 | 1.0 | 5.0 | 0.00 | 0.12 | 0.12 | 73 | 1005.6 |
| 20260504033600 | 51 | 360 | 1.0 | 4.0 | 0.00 | 0.12 | 0.12 | 73 | 1005.6 |
| 20260504032721 | 52 | 360 | 3.0 | 6.0 | 0.00 | 0.12 | 0.12 | 72 | 1005.7 |
| 20260504031821 | 52 | 360 | 6.0 | 9.0 | 0.00 | 0.12 | 0.12 | 73 | 1005.6 |
| 20260504030900 | 52 | 2 | 6.0 | 11.0 | 0.00 | 0.12 | 0.12 | 73 | 1005.5 |
| 20260504030001 | 52 | 175 | 4.0 | 6.0 | 0.00 | 0.12 | 0.12 | 71 | 1005.5 |
| 20260504025400 | 53 | 175 | 4.0 | 6.0 | 0.00 | 0.12 | 0.12 | 69 | 1005.5 |
| 20260504024500 | 54 | 173 | 6.0 | 9.0 | 0.00 | 0.12 | 0.12 | 68 | 1005.6 |
| 20260504023600 | 54 | 168 | 6.0 | 10.0 | 0.00 | 0.12 | 0.12 | 68 | 1005.5 |
| 20260504022700 | 55 | 165 | 6.0 | 10.0 | 0.00 | 0.12 | 0.12 | 65 | 1005.4 |
| 20260504021800 | 56 | 164 | 7.0 | 11.0 | 0.00 | 0.12 | 0.12 | 64 | 1005.5 |
| 20260504020900 | 57 | 159 | 8.0 | 14.0 | 0.00 | 0.12 | 0.12 | 62 | 1005.5 |
| 20260504020000 | 58 | 156 | 8.0 | 12.0 | 0.00 | 0.12 | 0.12 | 60 | 1005.6 |
| 20260504015400 | 59 | 150 | 6.0 | 10.0 | 0.00 | 0.12 | 0.12 | 59 | 1005.7 |
| 20260504014500 | 60 | 158 | 6.0 | 11.0 | 0.00 | 0.12 | 0.12 | 58 | 1005.8 |
| 20260504013601 | 61 | 162 | 8.0 | 14.0 | 0.00 | 0.12 | 0.12 | 56 | 1006.0 |
| 20260504012700 | 61 | 162 | 8.0 | 14.0 | 0.00 | 0.12 | 0.12 | 54 | 1006.1 |
| 20260504011801 | 63 | 157 | 7.0 | 12.0 | 0.00 | 0.12 | 0.12 | 53 | 1006.2 |
| 20260504010902 | 64 | 157 | 9.0 | 15.0 | 0.00 | 0.12 | 0.12 | 51 | 1006.4 |
| 20260504010001 | 64 | 156 | 8.0 | 13.0 | 0.00 | 0.12 | 0.12 | 50 | 1006.5 |
| 20260504005401 | 65 | 149 | 7.0 | 10.0 | 0.00 | 0.12 | 0.12 | 51 | 1006.6 |
| 20260504004501 | 65 | 152 | 6.0 | 9.0 | 0.00 | 0.12 | 0.12 | 51 | 1006.7 |
| 20260504003601 | 65 | 160 | 7.0 | 10.0 | 0.00 | 0.12 | 0.12 | 51 | 1006.8 |
| 20260504002722 | 65 | 158 | 7.0 | 11.0 | 0.00 | 0.12 | 0.12 | 52 | 1007.0 |
| 20260504001802 | 65 | 159 | 8.0 | 11.0 | 0.00 | 0.12 | 0.12 | 53 | 1007.1 |
| 20260504000901 | 65 | 151 | 7.0 | 12.0 | 0.00 | 0.12 | 0.12 | 52 | 1007.3 |
| 20260504000022 | 65 | 4 | 7.0 | 12.0 | 0.00 | 0.12 | 0.12 | 54 | 1007.4 |
| 20260503235422 | 65 | 6 | 8.0 | 13.0 | 0.00 | 0.12 | 0.12 | 53 | 1007.6 |
| 20260503234501 | 65 | 11 | 8.0 | 12.0 | 0.00 | 0.12 | 0.12 | 54 | 1007.8 |
| 20260503233602 | 64 | 123 | 8.0 | 14.0 | 0.00 | 0.12 | 0.12 | 53 | 1007.9 |
| 20260503232701 | 64 | 1 | 7.0 | 13.0 | 0.00 | 0.12 | 0.12 | 55 | 1008.1 |
| 20260503231801 | 64 | 98 | 7.0 | 14.0 | 0.00 | 0.12 | 0.12 | 53 | 1008.2 |
| 20260503230901 | 64 | 360 | 7.0 | 11.0 | 0.00 | 0.12 | 0.12 | 54 | 1008.4 |
| 20260503230001 | 64 | 359 | 9.0 | 15.0 | 0.00 | 0.12 | 0.12 | 51 | 1008.7 |
| 20260503225401 | 64 | 359 | 9.0 | 15.0 | 0.00 | 0.12 | 0.12 | 56 | 1008.8 |
| 20260503224501 | 63 | 358 | 11.0 | 15.0 | 0.00 | 0.12 | 0.12 | 56 | 1009.0 |
| 20260503223602 | 62 | 360 | 9.0 | 15.0 | 0.00 | 0.12 | 0.12 | 61 | 1009.3 |
| 20260503222701 | 61 | 360 | 6.0 | 11.0 | 0.00 | 0.12 | 0.12 | 68 | 1009.7 |
| 20260503221801 | 62 | 360 | 8.0 | 13.0 | 0.00 | 0.12 | 0.12 | 60 | 1009.7 |
| 20260503220901 | 61 | 360 | 9.0 | 12.0 | 0.00 | 0.12 | 0.12 | 63 | 1009.9 |
| 20260503220001 | 61 | 360 | 9.0 | 12.0 | 0.00 | 0.12 | 0.12 | 66 | 1010.1 |
| 20260503215422 | 61 | 360 | 8.0 | 12.0 | 0.00 | 0.12 | 0.12 | 66 | 1010.0 |
| 20260503214501 | 60 | 360 | 8.0 | 12.0 | 0.01 | 0.12 | 0.12 | 69 | 1010.1 |
| 20260503213602 | 58 | 1 | 9.0 | 14.0 | 0.03 | 0.12 | 0.12 | 73 | 1010.3 |
| 20260503212701 | 58 | 1 | 5.0 | 11.0 | 0.03 | 0.12 | 0.12 | 73 | 1010.2 |
| 20260503211823 | 55 | 360 | 3.0 | 5.0 | 0.03 | 0.12 | 0.12 | 76 | 1010.7 |
| 20260503210901 | 54 | 350 | 3.0 | 8.0 | 0.03 | 0.12 | 0.12 | 69 | 1011.0 |
| 20260503210003 | 54 | 328 | 5.0 | 14.0 | 0.03 | 0.12 | 0.12 | 73 | 1011.4 |
| 20260503205423 | 55 | 309 | 12.0 | 21.0 | 0.03 | 0.12 | 0.12 | 72 | 1011.8 |
| 20260503204502 | 58 | 296 | 17.0 | 29.0 | 0.02 | 0.11 | 0.11 | 61 | 1011.7 |
| 20260503203601 | 63 | 115 | 1.0 | 4.0 | 0.00 | 0.09 | 0.09 | 48 | 1011.1 |
| 20260503202702 | 63 | 121 | 2.0 | 7.0 | 0.00 | 0.09 | 0.09 | 48 | 1010.5 |
| 20260503201802 | 64 | 32 | 7.0 | 12.0 | 0.00 | 0.09 | 0.09 | 49 | 1010.8 |
| 20260503200902 | 64 | 157 | 4.0 | 9.0 | 0.00 | 0.09 | 0.09 | 54 | 1010.8 |
| 20260503200002 | 63 | 152 | 5.0 | 9.0 | 0.00 | 0.09 | 0.09 | 51 | 1011.0 |
| 20260503195402 | 64 | 155 | 6.0 | 9.0 | 0.00 | 0.09 | 0.09 | 49 | 1011.0 |
| 20260503194502 | 64 | 134 | 6.0 | 9.0 | 0.04 | 0.09 | 0.09 | 51 | 1011.1 |
| 20260503193623 | 64 | 116 | 3.0 | 7.0 | 0.09 | 0.09 | 0.09 | 56 | 1011.1 |
| 20260503192703 | 62 | 58 | 2.0 | 4.0 | 0.09 | 0.09 | 0.09 | 49 | 1011.2 |
| 20260503191803 | 62 | 51 | 3.0 | 6.0 | 0.09 | 0.09 | 0.09 | 54 | 1011.4 |
| 20260503190903 | 63 | 59 | 6.0 | 12.0 | 0.09 | 0.09 | 0.09 | 54 | 1011.4 |
| 20260503190023 | 61 | 40 | 11.0 | 18.0 | 0.09 | 0.09 | 0.09 | 59 | 1011.5 |
| 20260503185402 | 59 | 6 | 10.0 | 18.0 | 0.09 | 0.09 | 0.09 | 58 | 1011.4 |
| 20260503184502 | 62 | 274 | 12.0 | 23.0 | 0.05 | 0.05 | 0.05 | 54 | 1012.5 |
| 20260503183602 | 66 | 323 | 9.0 | 26.0 | 0.00 | 0.00 | 0.00 | 42 | 1012.0 |
| 20260503182702 | 67 | 334 | 8.0 | 14.0 | 0.00 | 0.00 | 0.00 | 36 | 1011.9 |
| 20260503181823 | 67 | 14 | 7.0 | 13.0 | 0.00 | 0.00 | 0.00 | 36 | 1011.9 |
| 20260503180902 | 68 | 2 | 7.0 | 14.0 | 0.00 | 0.00 | 0.00 | 37 | 1012.1 |
| 20260503180002 | 67 | 14 | 9.0 | 15.0 | 0.00 | 0.00 | 0.00 | 38 | 1012.4 |
| 20260503175402 | 67 | 27 | 8.0 | 14.0 | 0.00 | 0.00 | 0.00 | 38 | 1012.4 |
| 20260503174502 | 67 | 350 | 9.0 | 15.0 | 0.00 | 0.00 | 0.00 | 37 | 1012.6 |
| 20260503173603 | 67 | 347 | 9.0 | 16.0 | 0.00 | 0.00 | 0.00 | 38 | 1012.7 |
| 20260503172702 | 67 | 349 | 10.0 | 17.0 | 0.00 | 0.00 | 0.00 | 37 | 1012.8 |
| 20260503171823 | 67 | 11 | 8.0 | 13.0 | 0.00 | 0.00 | 0.00 | 39 | 1012.9 |
| 20260503170902 | 65 | 18 | 7.0 | 15.0 | 0.00 | 0.00 | 0.00 | 40 | 1013.2 |
| 20260503150903 | 60 | 70 | 2.0 | 5.0 | 0.00 | 0.00 | 0.00 | 46 | 1014.1 |